Weather reports worldwide

Advertisment
Chania/Souda, Greece (16746): temperature & dewpoint: 11.01.2021 23:00:00 - 17.01.2021 23:00:00 (EET)Chania/Souda, Greece (16746): wind speed: 11.01.2021 23:00:00 - 17.01.2021 23:00:00 (EET)Chania/Souda, Greece (16746): wind direction: 11.01.2021 23:00:00 - 17.01.2021 23:00:00 (EET)Chania/Souda, Greece (16746): reduced air pressure: 11.01.2021 23:00:00 - 17.01.2021 23:00:00 (EET)Chania/Souda, Greece (16746): visibility: 11.01.2021 23:00:00 - 17.01.2021 23:00:00 (EET)
Date & Time tt [°C] td [°C] ff [km/h] ff [kn] dd ppp [hPa] vv [km]
17.01.2021 23:00:00 5,0 4,5 0 0 N 1015,8 10
17.01.2021 22:00:00 5,0 5,0 0 0 N - 10
17.01.2021 21:00:00 6,0 4,0 0 0 N - 10
17.01.2021 20:00:00 5,6 4,2 0 0 N 1015,1 10
17.01.2021 19:00:00 6,0 5,0 0 0 N - 10
17.01.2021 18:00:00 7,0 5,0 0 0 N - 10
17.01.2021 17:00:00 7,8 5,6 8 4 NNW 1013,9 10
17.01.2021 16:00:00 8,0 6,0 8 4 NNW - 10
17.01.2021 15:00:00 9,0 6,0 15 8 NNW - 10
17.01.2021 14:00:00 9,2 5,7 13 7 NNW 1012,9 10
17.01.2021 13:00:00 9,0 6,0 15 8 NNW - 10
17.01.2021 12:00:00 9,0 6,0 13 7 NW - 10
17.01.2021 11:00:00 8,6 6,5 18 10 NNW 1013,0 10
17.01.2021 10:00:00 9,0 7,0 13 7 W - 10
17.01.2021 09:00:00 8,0 6,0 9 5 NW - 10
17.01.2021 08:00:00 6,2 5,3 0 0 N 1011,4 10
17.01.2021 07:00:00 6,0 6,0 9 5 NW - 8
17.01.2021 06:00:00 6,0 6,0 11 6 W - 6
17.01.2021 05:00:00 6,4 5,9 11 6 NW 1010,0 8
17.01.2021 04:00:00 7,0 7,0 0 0 N - 7
17.01.2021 03:00:00 7,0 7,0 0 0 N - 8
17.01.2021 02:00:00 7,8 7,4 11 6 NNW 1009,4 8
17.01.2021 01:00:00 8,0 8,0 9 5 WNW - 8
17.01.2021 00:00:00 8,0 7,0 18 10 NNW - 8
16.01.2021 23:00:00 8,8 8,4 5 3 - 1008,6 8
16.01.2021 22:00:00 9,0 9,0 0 0 N - 8
16.01.2021 21:00:00 9,0 9,0 0 0 N - 7
16.01.2021 20:00:00 9,0 9,0 8 4 WNW 1008,0 6
16.01.2021 19:00:00 9,0 9,0 0 0 N - 7
16.01.2021 18:00:00 9,0 9,0 5 3 - - 8
16.01.2021 17:00:00 9,4 9,0 9 5 NNW 1006,2 10
16.01.2021 16:00:00 10,0 9,0 11 6 NNW - 9
16.01.2021 15:00:00 10,0 9,0 26 14 NW - 10
16.01.2021 14:00:00 10,4 10,0 21 11 NW 1004,7 8
16.01.2021 13:00:00 12,0 11,0 39 21 W - 1,0
16.01.2021 12:00:00 13,0 11,0 29 16 W - 10
16.01.2021 11:00:00 14,4 10,2 18 10 W 1004,5 10
16.01.2021 10:00:00 12,0 11,0 2 1 - - 10
16.01.2021 09:00:00 11,0 10,0 0 0 N - 10
16.01.2021 08:00:00 10,4 10,0 0 0 N 1005,6 10
16.01.2021 07:00:00 11,0 10,0 0 0 N - 10
16.01.2021 06:00:00 11,0 10,0 8 4 E - 10
16.01.2021 05:00:00 11,4 10,2 11 6 ESE 1006,6 8
16.01.2021 04:00:00 11,0 10,0 15 8 ESE - 8
16.01.2021 03:00:00 10,0 10,0 8 4 SE - 8
16.01.2021 02:00:00 10,4 9,6 5 3 - 1009,3 7
16.01.2021 01:00:00 10,0 10,0 0 0 N - 7
16.01.2021 00:00:00 11,0 10,0 0 0 N - 7
15.01.2021 23:00:00 10,6 10,2 5 3 - 1010,7 7
15.01.2021 22:00:00 10,0 10,0 15 8 ESE - 7
15.01.2021 21:00:00 10,0 10,0 5 3 - - 7
15.01.2021 20:00:00 10,6 9,8 9 5 ESE 1012,0 7
15.01.2021 19:00:00 10,0 10,0 11 6 E - 7
15.01.2021 18:00:00 10,0 10,0 15 8 E - 7
15.01.2021 17:00:00 10,6 10,2 15 8 E 1011,4 7
15.01.2021 16:00:00 11,0 11,0 15 8 E - 7
15.01.2021 15:00:00 11,0 11,0 16 9 ENE - 5
15.01.2021 14:00:00 11,2 10,4 22 12 E 1010,3 5
15.01.2021 13:00:00 11,0 11,0 24 13 ENE - 3,0
15.01.2021 12:00:00 13,0 13,0 22 12 ENE - 7
15.01.2021 11:00:00 13,2 12,5 11 6 WSW 1010,5 10
15.01.2021 10:00:00 13,0 13,0 11 6 WNW - 10
15.01.2021 09:00:00 13,0 12,0 11 6 WNW - 9
15.01.2021 08:00:00 12,8 12,1 11 6 W 1009,1 10
15.01.2021 07:00:00 14,0 11,0 29 16 W - 10
15.01.2021 06:00:00 13,0 11,0 29 16 W - 10
15.01.2021 05:00:00 12,4 8,4 0 0 N 1008,6 10
15.01.2021 04:00:00 12,0 7,0 8 4 SSE - 10
15.01.2021 03:00:00 11,0 8,0 8 4 SSE - 10
15.01.2021 02:00:00 11,2 7,5 11 6 W 1010,3 10
15.01.2021 01:00:00 12,0 8,0 18 10 W - 10
15.01.2021 00:00:00 11,0 8,0 11 6 W - 10
14.01.2021 23:00:00 11,0 8,2 15 8 W 1011,8 10
14.01.2021 22:00:00 10,0 9,0 11 6 WSW - 10
14.01.2021 21:00:00 10,0 9,0 18 10 W - 10
14.01.2021 20:00:00 10,6 8,2 18 10 W 1011,9 10
14.01.2021 19:00:00 11,0 7,0 21 11 W - 10
14.01.2021 18:00:00 12,0 7,0 18 10 W - 10
14.01.2021 17:00:00 12,2 7,3 16 9 WNW 1011,0 10
14.01.2021 16:00:00 13,0 7,0 21 11 WNW - 10
14.01.2021 15:00:00 13,0 7,0 21 11 WNW - 10
14.01.2021 14:00:00 12,8 7,0 26 14 NNW 1010,3 10
14.01.2021 13:00:00 13,0 4,0 22 12 WNW - 10
14.01.2021 12:00:00 13,0 3,0 29 16 NW - 10
14.01.2021 11:00:00 12,8 4,5 41 22 WNW 1010,5 10
14.01.2021 10:00:00 13,0 6,0 46 25 NW - 10
14.01.2021 09:00:00 12,0 7,0 34 18 WNW - 10
14.01.2021 08:00:00 9,6 8,4 22 12 W 1009,1 10
14.01.2021 07:00:00 10,0 9,0 18 10 W - 9
14.01.2021 06:00:00 11,0 9,0 18 10 WNW - 10
14.01.2021 05:00:00 10,8 8,8 22 12 W 1009,4 10
14.01.2021 04:00:00 12,0 8,0 22 12 W - 10
14.01.2021 03:00:00 12,0 8,0 22 12 W - 10
14.01.2021 02:00:00 11,6 8,4 28 15 W 1009,6 10
14.01.2021 01:00:00 11,0 9,0 28 15 WNW - 10
14.01.2021 00:00:00 11,0 9,0 29 16 W - 10
13.01.2021 23:00:00 10,6 9,0 26 14 W 1009,8 10
13.01.2021 22:00:00 10,0 9,0 26 14 W - 10
13.01.2021 21:00:00 10,0 9,0 29 16 W - 9
13.01.2021 20:00:00 12,2 9,9 26 14 W 1008,9 10
13.01.2021 19:00:00 13,0 10,0 29 16 W - 10
13.01.2021 18:00:00 13,0 10,0 29 16 W - 10
13.01.2021 17:00:00 14,4 8,9 22 12 W 1008,5 10
13.01.2021 16:00:00 15,0 8,0 29 16 WNW - 10
13.01.2021 15:00:00 15,0 10,0 22 12 W - 10
13.01.2021 14:00:00 15,4 9,7 22 12 W 1008,0 10
13.01.2021 13:00:00 16,0 11,0 22 12 W - 10
13.01.2021 12:00:00 15,0 10,0 22 12 WNW - 10
13.01.2021 11:00:00 14,8 10,3 18 10 W 1008,9 10
13.01.2021 10:00:00 14,0 11,0 28 15 WSW - 10
13.01.2021 09:00:00 13,0 10,0 26 14 W - 10
13.01.2021 08:00:00 11,8 8,6 22 12 W 1008,3 10
13.01.2021 07:00:00 13,0 9,0 11 6 W - 10
13.01.2021 06:00:00 13,0 9,0 22 12 W - 10
13.01.2021 05:00:00 12,4 8,8 26 14 W 1007,8 10
13.01.2021 04:00:00 12,0 9,0 28 15 W - 10
13.01.2021 03:00:00 12,0 8,0 16 9 W - 10
13.01.2021 02:00:00 13,0 9,9 22 12 W 1008,2 10
13.01.2021 01:00:00 14,0 11,0 24 13 W - 10
13.01.2021 00:00:00 14,0 11,0 16 9 W - 10
12.01.2021 23:00:00 14,8 10,3 21 11 W 1008,5 10
12.01.2021 22:00:00 15,0 13,0 18 10 W - 10
12.01.2021 21:00:00 15,0 12,0 18 10 W - 10
12.01.2021 20:00:00 15,8 13,7 28 15 WNW 1007,5 10
12.01.2021 19:00:00 17,0 14,0 9 5 WNW - 10
12.01.2021 18:00:00 18,0 15,0 8 4 WNW - 10
12.01.2021 17:00:00 18,2 15,1 8 4 NE 1006,3 10
12.01.2021 16:00:00 20,0 16,0 0 0 N - 10
12.01.2021 15:00:00 20,0 16,0 9 5 E - 10
12.01.2021 14:00:00 21,0 16,0 8 4 E - 10
12.01.2021 13:00:00 21,0 14,0 9 5 SE - 10
12.01.2021 12:00:00 21,0 15,0 18 10 S - 10
12.01.2021 11:00:00 20,8 14,3 18 10 SSW 1010,0 10
12.01.2021 10:00:00 21,0 13,0 16 9 SSE - 10
12.01.2021 09:00:00 20,0 13,0 11 6 SSE - 10
12.01.2021 08:00:00 18,8 14,7 11 6 SSE 1010,9 10
12.01.2021 07:00:00 19,0 14,0 16 9 SSE - 10
12.01.2021 06:00:00 17,0 16,0 13 7 SSE - 10
12.01.2021 05:00:00 20,4 14,3 18 10 S 1011,4 10
12.01.2021 04:00:00 20,0 15,0 22 12 SSE - 10
12.01.2021 03:00:00 20,0 14,0 21 11 S - 10
12.01.2021 02:00:00 20,4 13,5 21 11 SSE 1013,0 10
12.01.2021 01:00:00 20,0 13,0 11 6 SSE - 10
12.01.2021 00:00:00 17,0 14,0 11 6 SSE - 10
11.01.2021 23:00:00 18,8 13,6 0 0 N 1014,7 10

tt = temperature
td = dewpoint
ff = wind speed
dd = wind direction
ppp = reduced air pressure
vv = visibility

Next stations